{"data":{"norad_id":67880,"intl_designator":"2026-035B","name":"STARLINK-36821","alt_names":[],"object_type":"PAYLOAD","status":"ACTIVE","operator":null,"country":"US","launch_date":"2026-02-21","launch_site_code":"AFWTR","launch_vehicle":null,"mission":null,"orbit_class":"UNKNOWN","rcs_meters":null,"size_class":null,"mass_kg":null,"dimensions":null,"purposes":["comms"],"wikipedia_slug":null,"has_3d_model":false,"image_url":null,"decayed_at":null,"tle_current":{"epoch":"2026-09-17T19:04:04.437984Z","epoch_age_seconds":297058,"freshness":"STALE","line1":"1 67880U 26035B   26260.79449581 -.00010589  00000+0 -32638-3 0  9997","line2":"2 67880  97.2847 192.6114 0002788  90.5493 269.6070 15.33414791 33427","mean_motion":15.33414791,"eccentricity":0.0002788,"inclination_deg":97.2847,"raan_deg":192.6114,"arg_perigee_deg":90.5493,"mean_anomaly_deg":269.607,"bstar":-0.00032638,"rev_number":3342,"period_min":93.908054653687,"perigee_km":463.72501359206,"apogee_km":467.54109977567,"semimajor_km":6843.7700566839,"source":"CELESTRAK","updated_at":"2026-09-20T09:00:43.695072Z"}}}